Regional Weather Roundup
Issued by NWS Nashville, TN

Home | Current Version | Previous Version | Text Only | Print | Product List | Glossary On
Versions: 1 2 3 4 5 6 7 8 9 10 11 12 13 14 15 16 17 18 19 20 21 22 23 24 25 26 27 28
000
ASUS44 KOHX 271010
RWROHX
MIDDLE TENNESSEE HOURLY WEATHER ROUNDUP
NATIONAL WEATHER SERVICE NASHVILLE TN
500 AM CDT TUE JUN 27 2017

NOTE: "FAIR" INDICATES FEW OR NO CLOUDS BELOW 12,000 FEET WITH
NO SIGNIFICANT WEATHER AND/OR OBSTRUCTIONS TO VISIBILITY.

* THESE REPORTS ARE NOT UNDER NWS QUALITY CONTROL AND MAY NOT
  REPORT WEATHER SUCH AS PRECIPITATION AND FOG.


TNZ005>011-023>034-057-059-062>066-078-080-271100
...NORTHERN MIDDLE TENNESSEE...

CITY           SKY/WX    TMP DP  RH WIND       PRES   REMARKS
CLARKSVILLE    CLOUDY    60  57  89 CALM      30.11S
CROSSVILLE     PTCLDY    55  52  89 CALM      30.14R
GALLATIN       PTCLDY    61  57  88 CALM      30.13S
NASHVILLE      CLOUDY    64  58  80 CALM      30.11S
PORTLAND       CLEAR     59  59 100 CALM      30.11S
SMYRNA         CLOUDY    62  59  90 CALM      30.12R
SPARTA         PTCLDY    55  55 100 CALM      30.11R
SPRINGFIELD    PTCLDY    61  59  94 CALM      30.10S
WEST NASHVILLE PTCLDY    63  59  88 CALM      30.08S
$$
TNZ056-058-060-061-075>077-079-093>097-271100
...SOUTHERN MIDDLE TENNESSEE...

CITY           SKY/WX    TMP DP  RH WIND       PRES   REMARKS
COLUMBIA       MOCLDY    63  63 100 CALM      30.09R
FAYETTEVILLE   MOCLDY    64  61  88 CALM      30.09R
MCMINNVILLE    CLEAR     59  59 100 CALM      30.12R
MURFREESBORO   CLOUDY    61  57  86 CALM      30.10R
PULASKI        MOCLDY    63  61  94 CALM      30.09S
SHELBYVILLE    CLEAR     61  59  94 CALM      30.10S
TULLAHOMA      PTCLDY    61  57  88 CALM      30.11S
WINCHESTER     CLEAR     61  61 100 CALM      30.11R
$$


...KEY TO REMARKS...
VSB - VISIBILITY IN MILES
WCI - WIND CHILL INDEX
HX  - HEAT INDEX





USA.gov is the U.S. government's official web portal to all federal, state and local government web resources and services.